Language: 


Des rapports , des résumés tant et plus, au choix de chacun....


Données statistiques de la station
Quotidien Rapport Décembre 11, 2017 Unités:  Métrique    Anglais   les deux
« Précédent Jour
Suivant Jour »
Quotidien Hebdomadaire Mensuel Annuel Actuel
  Haut: Bas: Moyen:
Température: -17.8 °C -17.8 °C -16.7 °C
Pt de rosée: -17.8 °C -17.2 °C -16.7 °C
Humidité: Humidity % 0 % 97 %
Vitesse du vent: 0 km/h 0 km/h 23.5 km/h
Rafales: 0 km/h - -
Vent:- - SSE
Pression: 0 hPa 32881.4 hPa -
Précipitation: 497.84 mm    
Historical Graphs
 
 
Données statistiques pour Décembre 11, 2017
Heure Température Point de rosée Pression Vent Vitesse du vent Refales Humidité Pluie (taux horaire)
-17.8 °C -17.8 °C 0 hPa Calm     Humidity % 0 mm
00:00 -16.8 °C -17.2 °C 33247.1 hPa Calm     93 % 0 mm
00:05 -16.9 °C -17.2 °C 33247.1 hPa Calm     93 % 0 mm
00:10 -16.9 °C -17.2 °C 33247.1 hPa Calm     93 % 0 mm
00:20 -17 °C -17.2 °C 33247.1 hPa Calm     94 % 0 mm
00:25 -17.1 °C -17.2 °C 33247.1 hPa Calm     94 % 0 mm
00:30 -17 °C -17.2 °C 33247.1 hPa Calm     95 % 0 mm
00:35 -17.1 °C -17.2 °C 33247.1 hPa Calm     95 % 0 mm
00:41 -17.1 °C -17.2 °C 33247.1 hPa Calm     95 % 0 mm
00:45 -17.2 °C -17.2 °C 33247.1 hPa Calm     95 % 0 mm
00:51 -17.2 °C -17.2 °C 33247.1 hPa Calm     95 % 0 mm
00:56 -17.2 °C -17.2 °C 33247.1 hPa Calm     96 % 0 mm
01:01 -17.2 °C -17.2 °C 33213.3 hPa Calm     96 % 0 mm
01:06 -17.1 °C -17.2 °C 33213.3 hPa Calm     97 % 0 mm
01:11 -17.1 °C -17.2 °C 33213.3 hPa Calm     97 % 0 mm
01:21 -17 °C -17.2 °C 33213.3 hPa Calm     98 % 0 mm
01:26 -17 °C -17.2 °C 33213.3 hPa Calm     98 % 0 mm
01:31 -17 °C -17.2 °C 33213.3 hPa Calm     98 % 0 mm
01:36 -17 °C -17.2 °C 33213.3 hPa Calm     98 % 0 mm
01:41 -16.9 °C -16.7 °C 33179.4 hPa Calm     98 % 0 mm
01:46 -16.9 °C -16.7 °C 33179.4 hPa Calm     98 % 0 mm
01:56 -16.9 °C -16.7 °C 33179.4 hPa Calm     98 % 0 mm
02:01 -16.9 °C -16.7 °C 33179.4 hPa Calm     98 % 0 mm
02:06 -16.8 °C -16.7 °C 33179.4 hPa Calm     98 % 0 mm
02:11 -16.8 °C -16.7 °C 33213.3 hPa Calm     98 % 0 mm
02:16 -16.9 °C -16.7 °C 33213.3 hPa Calm     98 % 0 mm
02:21 -16.9 °C -16.7 °C 33213.3 hPa Calm     98 % 0 mm
02:26 -16.8 °C -16.7 °C 33213.3 hPa Calm     98 % 0 mm
02:36 -16.8 °C -16.7 °C 33213.3 hPa Calm     98 % 0 mm
02:41 -16.7 °C -16.7 °C 33213.3 hPa Calm     98 % 0 mm
02:51 -16.7 °C -16.7 °C 33213.3 hPa Calm     98 % 0 mm
03:01 -17.8 °C -16.7 °C 33213.3 hPa Calm     0 % 0 mm
03:12 -16.5 °C -16.1 °C 33213.3 hPa Calm     98 % 0 mm
03:17 -16.5 °C -16.1 °C 33213.3 hPa Calm     98 % 0 mm
03:32 -16.4 °C -16.1 °C 33247.1 hPa Calm     98 % 0 mm
03:42 -16.5 °C -16.1 °C 33213.3 hPa Calm     98 % 0 mm
03:52 -16.5 °C -16.1 °C 33213.3 hPa Calm     98 % 0 mm
03:57 -16.4 °C -16.1 °C 33213.3 hPa Calm     98 % 0 mm
04:02 -16.4 °C -16.1 °C 33213.3 hPa Calm     98 % 0 mm
04:07 -16.4 °C -16.1 °C 33213.3 hPa Calm     98 % 0 mm
04:17 -16.4 °C -16.1 °C 33145.6 hPa Calm     98 % 0 mm
04:22 -16.4 °C -16.1 °C 33145.6 hPa Calm     98 % 0 mm
04:27 -16.3 °C -16.1 °C 33145.6 hPa Calm     98 % 0 mm
04:32 -16.3 °C -16.1 °C 33145.6 hPa Calm     98 % 0 mm
04:37 -16.3 °C -16.1 °C 33145.6 hPa Calm     98 % 0 mm
04:43 -16.2 °C -16.1 °C 33145.6 hPa Calm     98 % 0 mm
04:48 -16.2 °C -16.1 °C 33145.6 hPa Calm     98 % 0 mm
05:03 -16.1 °C -16.1 °C 33111.7 hPa Calm     98 % 0 mm
05:08 -16.1 °C -16.1 °C 33111.7 hPa Calm     98 % 0 mm
05:13 -16.1 °C -16.1 °C 33111.7 hPa Calm     98 % 0 mm
05:18 -16.1 °C -16.1 °C 33111.7 hPa Calm     98 % 0 mm
05:23 -16 °C -16.1 °C 33111.7 hPa Calm     98 % 0 mm
05:25 -16 °C -16.1 °C 33111.7 hPa Calm     98 % 0 mm
05:30 -15.9 °C -16.1 °C 33054.1 hPa Calm     98 % 0 mm
05:35 -15.9 °C -16.1 °C 33054.1 hPa Calm     98 % 0 mm
05:40 -15.9 °C -16.1 °C 33054.1 hPa Calm     98 % 0 mm
05:45 -15.9 °C -16.1 °C 33077.8 hPa Calm     98 % 0 mm
05:50 -15.9 °C -16.1 °C 33077.8 hPa Calm     98 % 0 mm
05:55 -15.9 °C -16.1 °C 33077.8 hPa Calm     98 % 0 mm
06:00 -15.9 °C -16.1 °C 33077.8 hPa Calm     98 % 0 mm
06:10 -15.9 °C -16.1 °C 33077.8 hPa Calm     98 % 0 mm
06:15 -15.9 °C -16.1 °C 33077.8 hPa Calm     98 % 0 mm
06:20 -15.9 °C -16.1 °C 33077.8 hPa Calm     98 % 0 mm
06:30 -15.8 °C -15.6 °C 33054.1 hPa Calm     98 % 0 mm
06:35 -15.8 °C -15.6 °C 33054.1 hPa Calm     98 % 0 mm
06:40 -15.8 °C -15.6 °C 33054.1 hPa Calm     98 % 0 mm
06:45 -15.8 °C -15.6 °C 33054.1 hPa Calm     98 % 0 mm
06:50 -15.8 °C -15.6 °C 33054.1 hPa Calm     98 % 0 mm
07:00 -15.8 °C -15.6 °C 33054.1 hPa Calm     98 % 7.62 mm
07:05 -15.8 °C -15.6 °C 33054.1 hPa Calm     98 % 7.62 mm
07:10 -15.8 °C -15.6 °C 33020.3 hPa Calm     98 % 7.62 mm
07:16 -15.8 °C -15.6 °C 33020.3 hPa Calm     98 % 12.7 mm
07:21 -15.8 °C -15.6 °C 33020.3 hPa Calm     98 % 12.7 mm
07:31 -15.9 °C -16.1 °C 33020.3 hPa ENE 30.7 km/h 30.7 km/h 98 % 33.02 mm
07:41 -15.9 °C -16.1 °C 33020.3 hPa NE 30.7 km/h 30.7 km/h 98 % 38.1 mm
07:46 -15.9 °C -16.1 °C 33020.3 hPa NE 30.7 km/h 30.7 km/h 98 % 45.72 mm
08:11 -16.1 °C -16.1 °C 33020.3 hPa ENE 32.3 km/h 39.9 km/h 98 % 63.5 mm
08:16 -16.1 °C -16.1 °C 33020.3 hPa ENE 31.4 km/h 45.1 km/h 98 % 58.42 mm
08:21 -16.2 °C -16.1 °C 33020.3 hPa ENE 30.7 km/h 51.5 km/h 98 % 58.42 mm
08:31 -16.2 °C -16.1 °C 33020.3 hPa NE 33.6 km/h 57.9 km/h 98 % 63.5 mm
08:36 -16.3 °C -16.1 °C 33020.3 hPa NE 26.2 km/h 44.1 km/h 98 % 58.42 mm
08:41 -16.3 °C -16.1 °C 33020.3 hPa ENE 36 km/h 43.5 km/h 98 % 63.5 mm
08:46 -16.5 °C -16.1 °C 33020.3 hPa ENE 34.8 km/h 43.5 km/h 98 % 63.5 mm
08:51 -16.6 °C -16.7 °C 33020.3 hPa NE 37 km/h 60.3 km/h 98 % 63.5 mm
09:07 -16.9 °C -16.7 °C 33020.3 hPa NE 41.7 km/h 63.2 km/h 98 % 76.2 mm
09:12 -17.1 °C -17.2 °C 33020.3 hPa NE 31.4 km/h 49.2 km/h 98 % 83.82 mm
09:17 -17.1 °C -17.2 °C 33020.3 hPa NE 30.7 km/h 49.2 km/h 98 % 76.2 mm
09:27 -17.2 °C -17.2 °C 33020.3 hPa ENE 36.5 km/h 44.6 km/h 98 % 76.2 mm
09:37 -17.2 °C -17.2 °C 33020.3 hPa NE 27.2 km/h 41.7 km/h 98 % 71.12 mm
09:42 -17.3 °C -17.2 °C 33020.3 hPa ENE 34.8 km/h 49.7 km/h 98 % 63.5 mm
09:47 -17.3 °C -17.2 °C 33020.3 hPa ENE 26.7 km/h 49.7 km/h 98 % 45.72 mm
09:52 -17.3 °C -17.2 °C 33020.3 hPa ENE 24.8 km/h 39.9 km/h 98 % 38.1 mm
09:54 -17.3 °C -17.2 °C 33020.3 hPa ENE 25.4 km/h 39.9 km/h 98 % 38.1 mm
09:59 -17.3 °C -17.2 °C 32986.4 hPa ENE 31.4 km/h 33.6 km/h 98 % 33.02 mm
10:04 -17.3 °C -17.2 °C 32986.4 hPa ENE 34.1 km/h 48.1 km/h 98 % 12.7 mm
10:09 -17.3 °C -17.2 °C 32986.4 hPa ENE 33.2 km/h 52.8 km/h 98 % 7.62 mm
10:14 -17.3 °C -17.2 °C 33020.3 hPa NE 51 km/h 52.8 km/h 98 % 7.62 mm
10:19 -17.3 °C -17.2 °C 33020.3 hPa NE 35.2 km/h 51 km/h 98 % 7.62 mm
10:25 -17.2 °C -17.2 °C 33020.3 hPa NNE 61.3 km/h 61.3 km/h 98 % 0 mm
10:30 -17.2 °C -17.2 °C 32915.3 hPa East 26.7 km/h 62 km/h 98 % 0 mm
10:35 -17.2 °C -17.2 °C 32915.3 hPa NE 66 km/h 66 km/h 98 % 0 mm
10:50 -17.2 °C -17.2 °C 32949.2 hPa NE 61.3 km/h 77.1 km/h 98 % 7.62 mm
10:55 -17.2 °C -17.2 °C 32949.2 hPa ENE 45.9 km/h 77.1 km/h 98 % 12.7 mm
11:00 -17.2 °C -17.2 °C 32949.2 hPa NE 49.7 km/h 73.5 km/h 98 % 12.7 mm
11:05 -17.2 °C -17.2 °C 32949.2 hPa NE 57.3 km/h 73.5 km/h 98 % 25.4 mm
11:10 -17.2 °C -17.2 °C 32949.2 hPa NE 36.5 km/h 68.9 km/h 98 % 25.4 mm
11:15 -17.2 °C -17.2 °C 32986.4 hPa ENE 34.1 km/h 68.9 km/h 98 % 33.02 mm
11:20 -17.2 °C -17.2 °C 32986.4 hPa ENE 33.2 km/h 49.2 km/h 98 % 33.02 mm
11:25 -17.2 °C -17.2 °C 32986.4 hPa East 33.2 km/h 49.2 km/h 98 % 33.02 mm
11:30 -17.1 °C -17.2 °C 32949.2 hPa ENE 34.1 km/h 51.5 km/h 98 % 33.02 mm
11:35 -17.1 °C -17.2 °C 32949.2 hPa NE 42.2 km/h 51.5 km/h 98 % 38.1 mm
11:40 -17.2 °C -17.2 °C 32949.2 hPa ENE 38.3 km/h 63.7 km/h 98 % 38.1 mm
11:45 -17.2 °C -17.2 °C 32949.2 hPa ENE 34.1 km/h 63.7 km/h 98 % 33.02 mm
11:50 -17.2 °C -17.2 °C 32949.2 hPa ENE 41.7 km/h 51.5 km/h 98 % 38.1 mm
11:55 -17.1 °C -17.2 °C 32949.2 hPa ENE 31.9 km/h 57.3 km/h 98 % 33.02 mm
12:00 -17.1 °C -17.2 °C 32949.2 hPa ENE 38.3 km/h 57.3 km/h 98 % 33.02 mm
12:05 -17.1 °C -17.2 °C 32949.2 hPa ENE 43.5 km/h 56.6 km/h 98 % 20.32 mm
12:10 -17.2 °C -17.2 °C 32915.3 hPa NE 43.5 km/h 56.6 km/h 98 % 33.02 mm
12:15 -17.2 °C -17.2 °C 32915.3 hPa NNE 33.2 km/h 46.8 km/h 98 % 20.32 mm
12:25 -17.2 °C -17.2 °C 32949.2 hPa NE 31.9 km/h 39.9 km/h 98 % 20.32 mm
12:30 -17.2 °C -17.2 °C 32949.2 hPa NE 44.6 km/h 53.3 km/h 98 % 33.02 mm
12:35 -17.1 °C -17.2 °C 32949.2 hPa NE 50.5 km/h 53.3 km/h 98 % 33.02 mm
12:40 -17.1 °C -17.2 °C 32915.3 hPa NE 25.4 km/h 51.5 km/h 98 % 33.02 mm
12:45 -17.1 °C -17.2 °C 32915.3 hPa ENE 39.9 km/h 51.5 km/h 98 % 38.1 mm
12:50 -17.1 °C -17.2 °C 32915.3 hPa NE 33.2 km/h 59.5 km/h 98 % 33.02 mm
12:55 -17.2 °C -17.2 °C 32915.3 hPa NE 48.6 km/h 59.5 km/h 98 % 33.02 mm
13:06 -17.2 °C -17.2 °C 32915.3 hPa NE 34.1 km/h 63.7 km/h 98 % 38.1 mm
13:11 -17.2 °C -17.2 °C 32881.4 hPa ENE 44.6 km/h 63.7 km/h 98 % 33.02 mm
13:16 -17.2 °C -17.2 °C 32881.4 hPa NE 52.8 km/h 52.8 km/h 98 % 33.02 mm
13:21 -17.1 °C -17.2 °C 32881.4 hPa NE 27.7 km/h 65 km/h 98 % 38.1 mm
13:26 -17.1 °C -17.2 °C 32881.4 hPa NE 38.3 km/h 65 km/h 98 % 33.02 mm
13:31 -17.1 °C -17.2 °C 32881.4 hPa ENE 38.3 km/h 51.5 km/h 98 % 38.1 mm
13:36 -17.1 °C -17.2 °C 32881.4 hPa NE 40.7 km/h 51.5 km/h 98 % 33.02 mm
13:41 -17.1 °C -17.2 °C 32915.3 hPa ENE 26.7 km/h 51 km/h 98 % 38.1 mm
13:46 -17.1 °C -17.2 °C 32915.3 hPa ENE 44.6 km/h 61.3 km/h 98 % 33.02 mm
13:51 -17.1 °C -17.2 °C 32915.3 hPa NE 66.6 km/h 66.6 km/h 98 % 33.02 mm
13:56 -17.1 °C -17.2 °C 32881.4 hPa ENE 45.9 km/h 66.6 km/h 98 % 33.02 mm
14:01 -17.2 °C -17.2 °C 32881.4 hPa NE 52.8 km/h 65.5 km/h 98 % 20.32 mm
14:06 -17.2 °C -17.2 °C 32881.4 hPa NE 50.5 km/h 65.5 km/h 98 % 20.32 mm
14:11 -17.2 °C -17.2 °C 32881.4 hPa NNE 51.5 km/h 65 km/h 98 % 20.32 mm
14:16 -17.2 °C -17.2 °C 32881.4 hPa NE 41.2 km/h 65 km/h 98 % 20.32 mm
14:22 -17.2 °C -17.2 °C 32881.4 hPa NE 33.2 km/h 68.4 km/h 98 % 12.7 mm
14:27 -17.2 °C -17.2 °C 32915.3 hPa NE 51 km/h 68.4 km/h 98 % 7.62 mm
14:32 -17.2 °C -17.2 °C 32915.3 hPa NE 60.3 km/h 63.7 km/h 98 % 7.62 mm
14:37 -17.2 °C -17.2 °C 32915.3 hPa NNE 59.1 km/h 63.7 km/h 98 % 0 mm
14:42 -17.2 °C -17.2 °C 32915.3 hPa NNE 27.7 km/h 59.1 km/h 98 % 0 mm
14:47 -17.2 °C -17.2 °C 32915.3 hPa NE 49.7 km/h 59.1 km/h 98 % 0 mm
14:52 -17.2 °C -17.2 °C 32915.3 hPa NE 27.7 km/h 51.5 km/h 98 % 0 mm
14:57 -17.2 °C -17.2 °C 32915.3 hPa NNE 55.7 km/h 55.7 km/h 98 % 0 mm
15:02 -17.2 °C -17.2 °C 32915.3 hPa NE 33.6 km/h 62.6 km/h 98 % 0 mm
15:07 -17.2 °C -17.2 °C 32915.3 hPa NE 44.6 km/h 62.6 km/h 98 % 0 mm
15:08 -17.2 °C -17.2 °C 32915.3 hPa NNE 44.1 km/h 60.8 km/h 98 % 0 mm
15:18 -17.3 °C -17.2 °C 32949.2 hPa NE 48.1 km/h 66 km/h 98 % 0 mm
15:28 -17.3 °C -17.2 °C 32949.2 hPa North 44.6 km/h 52.8 km/h 98 % 0 mm
15:33 -17.3 °C -17.2 °C 32949.2 hPa NE 39.4 km/h 51 km/h 98 % 0 mm
15:38 -17.3 °C -17.2 °C 32949.2 hPa NNW 50.5 km/h 59.5 km/h 98 % 0 mm
15:43 -17.3 °C -17.2 °C 32949.2 hPa North 44.6 km/h 59.5 km/h 98 % 0 mm
15:48 -17.3 °C -17.2 °C 32949.2 hPa NE 42.2 km/h 69.4 km/h 98 % 0 mm
15:53 -17.2 °C -17.2 °C 32949.2 hPa North 45.9 km/h 69.4 km/h 98 % 0 mm
15:58 -17.2 °C -17.2 °C 32949.2 hPa NNE 60.8 km/h 67.1 km/h 98 % 0 mm
16:03 -17.2 °C -17.2 °C 32949.2 hPa ENE 59.1 km/h 66.6 km/h 98 % 0 mm
16:08 -17.2 °C -17.2 °C 32949.2 hPa NE 45.9 km/h 66.6 km/h 98 % 0 mm
16:14 -17.2 °C -17.2 °C 32986.4 hPa NNE 66 km/h 66 km/h 98 % 76.2 mm
16:24 -17.2 °C -17.2 °C 32986.4 hPa NE 60.3 km/h 66 km/h 98 % 76.2 mm
16:29 -17.2 °C -17.2 °C 33020.3 hPa NNE 36.5 km/h 60.3 km/h 98 % 76.2 mm
16:34 -17.2 °C -17.2 °C 33020.3 hPa North 26.7 km/h 57.9 km/h 98 % 76.2 mm
16:39 -17.2 °C -17.2 °C 33020.3 hPa ENE 31.4 km/h 57.9 km/h 98 % 76.2 mm
16:44 -17.2 °C -17.2 °C 33020.3 hPa NNE 38.3 km/h 65.5 km/h 98 % 76.2 mm
16:50 -17.2 °C -17.2 °C 33020.3 hPa NE 59.1 km/h 65.5 km/h 98 % 76.2 mm
17:00 -17.2 °C -17.2 °C 33054.1 hPa NNE 50.5 km/h 63.7 km/h 98 % 76.2 mm
17:05 -17.2 °C -17.2 °C 33054.1 hPa North 38.3 km/h 63.2 km/h 98 % 76.2 mm
17:10 -17.2 °C -17.2 °C 33054.1 hPa North 39.9 km/h 65.5 km/h 98 % 0 mm
17:20 -17.2 °C -17.2 °C 33111.7 hPa North 16.9 km/h 51 km/h 98 % 12.7 mm
17:25 -17.2 °C -17.2 °C 33111.7 hPa North 39.4 km/h 56.6 km/h 98 % 12.7 mm
17:30 -17.2 °C -17.2 °C 33077.8 hPa NNE 38.3 km/h 65 km/h 98 % 12.7 mm
17:35 -17.2 °C -17.2 °C 33077.8 hPa NNE 58.6 km/h 65 km/h 98 % 20.32 mm
17:40 -17.1 °C -17.2 °C 33077.8 hPa North 35.2 km/h 65.5 km/h 98 % 20.32 mm
17:45 -17.1 °C -17.2 °C 33111.7 hPa North 52.8 km/h 65.5 km/h 98 % 20.32 mm
17:50 -17.1 °C -17.2 °C 33111.7 hPa NNE 45.9 km/h 56.6 km/h 98 % 33.02 mm
17:55 -17.1 °C -17.2 °C 33111.7 hPa North 50.5 km/h 51 km/h 98 % 33.02 mm
18:00 -17 °C -17.2 °C 33111.7 hPa North 34.1 km/h 51 km/h 98 % 38.1 mm
18:05 -17 °C -17.2 °C 33111.7 hPa NNW 50.5 km/h 66 km/h 98 % 45.72 mm
18:11 -16.9 °C -16.7 °C 33145.6 hPa NW 34.8 km/h 66 km/h 98 % 45.72 mm
18:21 -16.9 °C -16.7 °C 33145.6 hPa North 57.9 km/h 57.9 km/h 98 % 38.1 mm
18:26 -16.9 °C -16.7 °C 33179.4 hPa North 57.3 km/h 57.9 km/h 98 % 38.1 mm
18:31 -16.8 °C -16.7 °C 33179.4 hPa North 32.3 km/h 57.3 km/h 98 % 38.1 mm
18:41 -16.7 °C -16.7 °C 33213.3 hPa North 41.7 km/h 57.3 km/h 98 % 38.1 mm
18:46 -16.7 °C -16.7 °C 33213.3 hPa NNE 45.9 km/h 62 km/h 98 % 45.72 mm
19:06 -16.6 °C -16.7 °C 33213.3 hPa NE 22 km/h 59.5 km/h 98 % 33.02 mm
19:11 -16.6 °C -16.7 °C 33213.3 hPa NNW 32.3 km/h 60.3 km/h 98 % 38.1 mm
19:16 -16.6 °C -16.7 °C 33213.3 hPa NNE 31.9 km/h 60.3 km/h 98 % 33.02 mm
19:21 -16.6 °C -16.7 °C 33213.3 hPa North 51 km/h 51 km/h 98 % 33.02 mm
19:26 -16.6 °C -16.7 °C 33247.1 hPa North 26.7 km/h 66 km/h 98 % 33.02 mm
19:31 -16.6 °C -16.7 °C 33247.1 hPa NNE 28.5 km/h 66 km/h 98 % 33.02 mm
19:36 -16.6 °C -16.7 °C 33247.1 hPa NNW 44.6 km/h 50.5 km/h 98 % 33.02 mm
19:41 -16.5 °C -16.1 °C 33284.4 hPa North 20.9 km/h 50.5 km/h 98 % 33.02 mm
19:52 -16.5 °C -16.1 °C 33284.4 hPa NNW 32.3 km/h 38.3 km/h 98 % 33.02 mm
19:57 -16.5 °C -16.1 °C 33284.4 hPa NNE 29 km/h 45.1 km/h 98 % 25.4 mm
20:02 -16.5 °C -16.1 °C 33284.4 hPa North 22 km/h 46.8 km/h 98 % 25.4 mm
20:12 -16.5 °C -16.1 °C 33284.4 hPa North 27.7 km/h 41.7 km/h 98 % 20.32 mm
20:17 -16.5 °C -16.1 °C 33284.4 hPa North 20.9 km/h 41.7 km/h 98 % 25.4 mm
20:27 -16.5 °C -16.1 °C 33318.2 hPa North 20.9 km/h 38.3 km/h 98 % 20.32 mm
20:30 -16.5 °C -16.1 °C 33318.2 hPa North 27.2 km/h 38.3 km/h 98 % 20.32 mm
20:35 -16.4 °C -16.1 °C 33318.2 hPa North 22 km/h 33.6 km/h 98 % 20.32 mm
20:40 -16.4 °C -16.1 °C 33318.2 hPa North 15.6 km/h 37 km/h 98 % 20.32 mm
20:50 -16.4 °C -16.1 °C 33352.1 hPa North 20.9 km/h 32.3 km/h 98 % 7.62 mm
20:55 -16.4 °C -16.1 °C 33352.1 hPa NNE 31.9 km/h 32.3 km/h 98 % 12.7 mm
21:00 -16.4 °C -16.1 °C 33352.1 hPa NNE 15 km/h 31.9 km/h 98 % 12.7 mm
21:10 -16.2 °C -16.1 °C 33419.8 hPa North 14 km/h 22.5 km/h 98 % 12.7 mm
21:20 -16 °C -16.1 °C 33419.8 hPa North 19.6 km/h 27.7 km/h 98 % 7.62 mm
21:31 -15.9 °C -16.7 °C 33419.8 hPa West 8.9 km/h 27.7 km/h 92 % 12.7 mm
21:36 -15.7 °C -16.7 °C 33419.8 hPa NNW 9.8 km/h 26.7 km/h 90 % 12.7 mm
21:41 -15.8 °C -16.7 °C 33419.8 hPa WNW 9.3 km/h 22 km/h 87 % 12.7 mm
21:46 -15.8 °C -16.7 °C 33419.8 hPa NNW 12.2 km/h 22 km/h 87 % 12.7 mm
21:51 -15.7 °C -16.7 °C 33419.8 hPa WNW 7.6 km/h 20.3 km/h 85 % 7.62 mm
21:56 -15.5 °C -16.7 °C 33419.8 hPa NNW 11.1 km/h 20.3 km/h 85 % 7.62 mm
22:01 -15.7 °C -17.2 °C 33419.8 hPa NNW 8 km/h 20.3 km/h 84 % 7.62 mm
22:06 -16.1 °C -17.2 °C 33419.8 hPa NW 2.3 km/h 19.6 km/h 88 % 7.62 mm
22:11 -16.2 °C -16.7 °C 33453.7 hPa WNW 2.9 km/h 11.1 km/h 91 % 7.62 mm
22:17 -16.3 °C -16.7 °C 33453.7 hPa Calm   11.1 km/h 92 % 7.62 mm
22:21 -16.3 °C -16.7 °C 33453.7 hPa NNW 14.5 km/h 33.6 km/h 94 % 7.62 mm
22:26 -16.3 °C -16.1 °C 33490.9 hPa NW 14 km/h 37 km/h 96 % 7.62 mm
22:31 -16.3 °C -16.1 °C 33490.9 hPa NW 2.9 km/h 37 km/h 96 % 7.62 mm
22:37 -16.3 °C -16.1 °C 33490.9 hPa Calm   15.6 km/h 97 % 7.62 mm
22:42 -16.3 °C -16.1 °C 33453.7 hPa NNW 8.9 km/h 12.7 km/h 97 % 7.62 mm
22:52 -16.4 °C -16.1 °C 33453.7 hPa Calm   20.9 km/h 98 % 7.62 mm
22:57 -16.4 °C -16.1 °C 33524.8 hPa NNW 8 km/h 20.9 km/h 98 % 7.62 mm
23:02 -16.4 °C -16.1 °C 33524.8 hPa NW 10.3 km/h 20.3 km/h 98 % 7.62 mm
23:07 -16.3 °C -16.1 °C 33524.8 hPa WNW 18.7 km/h 27.7 km/h 98 % 7.62 mm
23:12 -16.3 °C -16.1 °C 33558.6 hPa NW 19.2 km/h 27.7 km/h 98 % 7.62 mm
23:17 -16.3 °C -16.1 °C 33558.6 hPa NNW 22.5 km/h 27.7 km/h 98 % 12.7 mm
23:35 -16.2 °C -16.1 °C 33558.6 hPa WNW 12.2 km/h 26.7 km/h 98 % 7.62 mm
23:40 -16.3 °C -16.1 °C 33558.6 hPa NNW 4.2 km/h 15 km/h 98 % 12.7 mm
23:45 -16.3 °C -16.1 °C 33558.6 hPa WSW 8 km/h 15 km/h 98 % 12.7 mm
23:50 -16.3 °C -16.1 °C 33558.6 hPa West 9.3 km/h 16.9 km/h 98 % 12.7 mm
23:55 -16.4 °C -16.1 °C 33558.6 hPa West 9.8 km/h 16.9 km/h 98 % 12.7 mm
Le Gheer Warneton
Courtoisie de Weather Underground - 2 mb

Mise a jour : 18/02/2018 20:43:12
Généré par Cumulus 1.9.4 (1099)